#timestamp,LO_Frequency,Hit,StdDev 
1513994415.7,286046997.9,N
1513994435.6,286046998.8,N
1513994455.4,286046998.3,N
1513994475.2,286046999.6,N
1513994495.1,286046998.4,N
1513994496.0,286046998.4,N
1513994515.8,286047000.4,N
1513994535.7,286047001.0,N
1513994555.5,286047000.9,N
1513994575.3,286047002.6,N
1513994595.2,286047000.5,N
1513994615.0,286046999.0,N
1513994615.9,286046999.0,N
1513994635.8,286046999.6,N
1513994655.6,286046996.5,N
1513994675.4,286046996.5,N
1513994695.3,286046999.1,N
1513994715.1,286046996.5,N
1513994735.9,286046997.0,N
1513994755.7,286046996.5,N
1513994775.5,286046999.2,N
1513994795.4,286047000.3,N
1513994815.2,286046999.2,N
1513994835.0,286046998.9,N
1513994835.9,286046998.9,N
1513994855.8,286046997.1,N
1513994875.6,286046998.2,N
1513994895.5,286047002.6,N
1513994915.3,286047000.4,N
1513994935.1,286047001.3,N
1513994955.9,286046999.9,N
1513994975.7,286047002.6,N
1513994995.5,286046999.8,N
1513995015.4,286047002.0,N
1513995035.2,286047000.9,N
1513995055.1,286047000.7,N
1513995056.0,286047000.7,N
1513995075.8,286046998.4,N
1513995095.6,286047000.0,N
1513995115.5,286047001.2,N
1513995135.3,286047000.9,N
1513995155.2,286046998.5,N
1513995175.9,286046998.6,N
1513995195.7,286046998.4,N
1513995215.6,286046999.4,N
1513995235.4,286046999.2,N
1513995255.3,286046999.0,N
1513995275.1,286046996.7,N
1513995276.0,286046996.7,N
1513995295.8,286046997.6,N
1513995315.7,286046997.4,N
1513995335.5,286046997.5,N
1513995355.3,286046995.3,N
1513995375.2,286046996.7,N
1513995395.0,286046997.8,N
1513995395.9,286046997.8,N
1513995415.8,286046998.4,N
1513995435.6,286047000.9,N
1513995455.4,286046999.7,N
1513995475.3,286047000.6,N
1513995495.1,286046998.1,N
1513995515.9,286047000.9,N
1513995535.7,286046999.9,N
1513995555.5,286047002.3,N
1513995575.4,286047002.2,N
1513995595.2,286047002.4,N
1513995615.0,286047002.7,N
1513995615.9,286047002.7,N
1513995635.8,286047004.2,N
1513995655.6,286047003.6,N
1513995675.5,286047003.0,N
1513995695.3,286047005.1,N
1513995715.1,286047004.5,N
1513995735.9,286047005.2,N
1513995755.7,286047005.8,N
1513995775.6,286047005.8,N
1513995795.4,286047005.9,N
1513995815.2,286047003.1,N
1513995835.1,286047002.9,N
1513995836.0,286047002.9,N
1513995855.8,286047003.3,N
1513995875.6,286047005.8,N
1513995895.5,286047003.4,N
1513995915.3,286047003.0,N
1513995935.2,286047003.6,N
1513995955.9,286047001.5,N
1513995975.7,286047000.2,N
1513995995.6,286047004.4,N
1513996015.4,286047003.8,N
1513996035.2,286047005.5,N
1513996055.1,286047005.6,Y
1513996056.0,286047005.6,P
1513996075.8,286047002.4,N
1513996095.7,286047002.3,N
1513996115.5,286047001.4,N
1513996135.3,286047002.2,N
1513996155.2,286047002.3,N
1513996175.0,286047002.4,N
1513996175.9,286047002.4,N
1513996195.8,286047001.5,N
1513996215.6,286047001.9,N
1513996235.4,286047001.5,N
1513996255.3,286047002.0,N
1513996275.1,286047002.0,N
1513996295.8,286047001.8,N
1513996315.7,286046999.9,N
1513996335.5,286047000.5,N
1513996355.4,286046999.2,N
1513996375.2,286046999.4,N
1513996395.0,286046998.3,N
1513996395.9,286046998.3,N
1513996415.8,286047000.4,N
1513996435.6,286046998.1,N
1513996455.4,286046999.7,N
1513996475.3,286047000.4,N
1513996495.1,286047002.8,N
1513996515.9,286047001.9,N
1513996535.7,286047002.1,N
1513996555.5,286047004.1,N
1513996575.4,286047004.2,N
1513996595.2,286047003.9,N
1513996615.0,286047004.4,N
1513996616.0,286047004.4,N
1513996635.8,286047003.9,N
1513996655.6,286047002.0,N
1513996675.5,286047002.2,N
1513996695.3,286047004.4,N
1513996715.1,286047003.9,N
1513996735.9,286047003.7,N
1513996755.7,286047005.4,N
1513996775.6,286047004.5,N
1513996795.4,286047005.2,N
1513996815.2,286047005.5,N
1513996835.1,286047001.7,N
1513996836.0,286047001.7,N
1513996855.8,286047004.0,N
1513996875.6,286047002.3,N
1513996895.5,286047002.5,N
1513996915.3,286047002.3,N
1513996935.2,286047002.8,N
1513996955.9,286047001.5,N
1513996975.7,286047002.1,N
1513996995.6,286047002.3,N
1513997015.4,286047000.6,N
1513997035.3,286047000.4,N
1513997055.1,286046999.9,N
1513997056.0,286046999.9,N
1513997075.8,286046999.8,N
1513997095.7,286046999.7,N
1513997115.5,286047000.6,N
1513997135.3,286047000.8,N
1513997155.2,286047000.7,N
1513997175.0,286046998.8,N
1513997175.9,286046998.8,N
1513997195.8,286047000.6,N
1513997215.6,286046998.5,N
1513997235.4,286046997.4,N
1513997255.3,286046997.7,N
1513997275.1,286046995.5,N
1513997295.9,286046995.1,N
1513997315.7,286046997.8,N
1513997335.5,286046997.6,N
1513997355.4,286046997.2,N
1513997375.2,286046997.3,N
1513997395.0,286046999.6,N
1513997395.9,286046999.6,N
1513997415.8,286046998.6,N
1513997435.6,286046997.5,N
1513997455.5,286046997.6,N
1513997475.3,286046995.7,N
1513997495.1,286046995.2,N
1513997515.9,286046997.8,N
1513997535.7,286046996.6,N
1513997555.6,286046999.1,N
1513997575.4,286046996.5,N
1513997595.2,286046997.6,N
1513997615.1,286046997.6,N
1513997616.0,286046997.6,N
1513997635.8,286046995.5,N
1513997655.6,286046996.0,N
1513997675.5,286046997.7,N
1513997695.3,286046997.4,N
1513997715.2,286046997.4,N
1513997735.0,286046997.5,N
1513997735.9,286046997.5,N
1513997755.7,286046997.9,N
1513997775.6,286046995.5,Y
1513997795.4,286046995.0,P
1513997815.3,286046995.5,P
1513997835.1,286046996.3,P
1513997855.8,286046996.3,Y
1513997875.7,286046999.0,P
1513997895.5,286046998.9,N
1513997915.4,286046999.4,N
1513997935.2,286046999.2,N
1513997955.0,286046995.4,Y
1513997955.9,286046995.4,P
1513997975.8,286046995.3,P
1513997995.6,286046998.0,N
